Weather in Cirali

Turkey     36°25′00″N   30°28′39″E
temp.,
°C
wind,
m/s
gust,
m/s
humid.,
%
clouds,
%
prec.,
mm/h
press.,
hPa
HPBL,
m
6 march, sat
sat600:00+10n12810 0.0 102475
03:00+9nnw118142 0.0 102472
06:00+9nw1280100 0.0 102376
09:00+11w117054 0.0 1024239
12:00+13sse226199 0.0 1023852
15:00+13se336699 0.0 1022745
18:00+12sse117296 0.0 1021471
21:00+10n128463 0.0 1022117
7 march, sun
sun700:00+9nnw128541 0.0 102288
03:00+9nnw118222 0.0 102185
06:00+8nw11680 0.0 102061
09:00+12wnw11520 0.0 102089
12:00+15sse33550 0.0 1019807
15:00+16s33491 0.1 1017997
18:00+14s225531 0.2 1015261
21:00+13nnw226160 0.2 101633
8 march, mon
mon800:00+12n236090 0.0 1016133
03:00+10nw116273 0.0 101671
06:00+9nw12620 0.0 101571
09:00+12nw11580 0.0 1015202
12:00+15se23520 0.0 10141007
15:00+14s335923 0.1 1013817
18:00+14sse226724 0.1 1013409
21:00+11n237512 0.1 101460
9 march, tue
tue900:00+10n34770 0.0 1015119
03:00+9n237233 0.0 101498
06:00+9nnw226933 0.0 101480
09:00+12n116217 0.0 1016172
12:00+14e325929 0.0 1015769
15:00+14ese326348 0.0 1014685
18:00+13s1267100 0.0 1014304
21:00+11nne348399 0.0 1015182
10 march, wed
wed1000:00+10n127964 0.6 101589
03:00+11n467675 0.6 1014219
06:00+10n348480 0.1 1014143
09:00+12ene237883 0.1 1014349
12:00+14e337074 0.1 1014703
15:00+15ese216770 0.2 1012618
18:00+14ssw337238 0.9 1011275
21:00+12w337444 1.3 101255